When you browse on this site, cookies collect data to enhance your experience and personalize the content and advertising you see.
Visit our Privacy Policy to learn more. By continuing to use the site, you agree to this use of cookies and data.
  • In Germany
  • List of Countries
  • For 7 days
  • Water Temperature
  • Weather Map
  • Weather Widgets
  • user-avatar
    Login

    Hourly Weather Exeter

    Today, 16 October, Wednesday

    Time Temperature Precipitation Wind Pressure Humidity
    00:00 +12°C° 2 mm 8 mps 742 mmHg 97%
    01:00 +12°C° 0.7 mm 7 mps 741 mmHg 97%
    02:00 +14°C° 0.7 mm 6 mps 741 mmHg 96%
    03:00 +14°C° 0.7 mm 5 mps 740 mmHg 96%
    04:00 +13°C° 0 mm 5 mps 741 mmHg 94%
    05:00 +11°C° 0 mm 6 mps 741 mmHg 92%
    06:00 +9°C° 0 mm 6 mps 742 mmHg 90%
    07:00 +10°C° 0 mm 5 mps 742 mmHg 87%
    08:00 +10°C° 0 mm 5 mps 743 mmHg 83%
    09:00 +10°C° 0 mm 5 mps 743 mmHg 80%
    10:00 +12°C° 0 mm 5 mps 744 mmHg 76%
    11:00 +13°C° 0 mm 4 mps 744 mmHg 73%
    12:00 +13°C° 0 mm 4 mps 745 mmHg 69%
    13:00 +13°C° 0 mm 4 mps 745 mmHg 69%
    14:00 +13°C° 0 mm 4 mps 745 mmHg 69%
    15:00 +13°C° 0 mm 4 mps 745 mmHg 70%
    16:00 +12°C° 0 mm 3 mps 745 mmHg 75%
    17:00 +10°C° 0 mm 3 mps 746 mmHg 80%
    18:00 +9°C° 0 mm 2 mps 746 mmHg 84%
    19:00 +8°C° 0 mm 2 mps 746 mmHg 85%
    20:00 +8°C° 0 mm 2 mps 746 mmHg 86%
    21:00 +7°C° 0 mm 2 mps 747 mmHg 87%
    22:00 +7°C° 0 mm 3 mps 747 mmHg 87%
    23:00 +7°C° 0 mm 3 mps 747 mmHg 87%

    Tomorrow, 17 October, Thursday

    Time Temperature Precipitation Wind Pressure Humidity
    00:00 +8°C° 0 mm 3 mps 747 mmHg 87%
    01:00 +8°C° 0.1 mm 3 mps 747 mmHg 87%
    02:00 +8°C° 0.1 mm 4 mps 746 mmHg 86%
    03:00 +8°C° 0.1 mm 4 mps 746 mmHg 86%
    04:00 +8°C° 0.1 mm 4 mps 746 mmHg 87%
    05:00 +7°C° 0.1 mm 4 mps 746 mmHg 88%
    06:00 +7°C° 0.1 mm 4 mps 746 mmHg 88%
    07:00 +8°C° 0.1 mm 5 mps 746 mmHg 85%
    08:00 +9°C° 0.1 mm 5 mps 746 mmHg 82%
    09:00 +11°C° 0.1 mm 6 mps 746 mmHg 79%
    10:00 +11°C° 0.1 mm 7 mps 746 mmHg 78%
    11:00 +12°C° 0.1 mm 8 mps 746 mmHg 76%
    12:00 +12°C° 0.1 mm 9 mps 746 mmHg 75%
    13:00 +12°C° 0.2 mm 9 mps 746 mmHg 75%
    14:00 +12°C° 0.2 mm 9 mps 746 mmHg 75%
    15:00 +12°C° 0.2 mm 9 mps 745 mmHg 75%
    16:00 +11°C° 0.2 mm 8 mps 745 mmHg 79%
    17:00 +10°C° 0.2 mm 7 mps 745 mmHg 82%
    18:00 +9°C° 0.2 mm 6 mps 745 mmHg 86%
    19:00 +9°C° 0.1 mm 6 mps 745 mmHg 86%
    20:00 +9°C° 0.1 mm 5 mps 745 mmHg 86%
    21:00 +9°C° 0.1 mm 5 mps 745 mmHg 86%
    22:00 +9°C° 0.3 mm 5 mps 745 mmHg 87%
    23:00 +9°C° 0.3 mm 6 mps 744 mmHg 87%

    Day after tomorrow, 18 October, Friday

    Time Temperature Precipitation Wind Pressure Humidity
    00:00 +9°C° 0.3 mm 6 mps 744 mmHg 87%
    01:00 +8°C° 0.2 mm 6 mps 744 mmHg 87%
    02:00 +8°C° 0.2 mm 6 mps 743 mmHg 87%
    03:00 +8°C° 0.2 mm 7 mps 743 mmHg 87%
    04:00 +8°C° 0.1 mm 7 mps 743 mmHg 87%
    05:00 +8°C° 0.1 mm 6 mps 743 mmHg 87%
    06:00 +8°C° 0.1 mm 6 mps 744 mmHg 87%
    07:00 +8°C° 0 mm 7 mps 744 mmHg 85%
    08:00 +9°C° 0 mm 7 mps 744 mmHg 83%
    09:00 +10°C° 0 mm 8 mps 744 mmHg 81%
    10:00 +10°C° 0.1 mm 8 mps 744 mmHg 78%
    11:00 +11°C° 0.1 mm 9 mps 745 mmHg 75%
    12:00 +12°C° 0.1 mm 9 mps 745 mmHg 71%
    13:00 +12°C° 0.2 mm 9 mps 744 mmHg 73%
    14:00 +12°C° 0.2 mm 8 mps 744 mmHg 74%
    15:00 +12°C° 0.2 mm 8 mps 744 mmHg 75%
    16:00 +11°C° 0 mm 7 mps 744 mmHg 79%
    17:00 +10°C° 0 mm 6 mps 743 mmHg 82%
    18:00 +9°C° 0 mm 5 mps 743 mmHg 85%
    19:00 +9°C° 0 mm 5 mps 743 mmHg 85%
    20:00 +9°C° 0 mm 5 mps 743 mmHg 86%
    21:00 +9°C° 0 mm 5 mps 743 mmHg 86%
    22:00 +8°C° 0.1 mm 5 mps 742 mmHg 86%
    23:00 +8°C° 0.1 mm 5 mps 742 mmHg 87%

    19 October, Saturday

    Time Temperature Precipitation Wind Pressure Humidity
    00:00 +8°C° 0.1 mm 5 mps 741 mmHg 87%
    01:00 +8°C° 0 mm 5 mps 741 mmHg 87%
    02:00 +8°C° 0 mm 5 mps 740 mmHg 87%
    03:00 +8°C° 0 mm 5 mps 740 mmHg 88%
    04:00 +8°C° 0 mm 5 mps 740 mmHg 88%
    05:00 +8°C° 0 mm 5 mps 740 mmHg 88%
    06:00 +8°C° 0 mm 5 mps 740 mmHg 87%
    07:00 +9°C° 0 mm 6 mps 740 mmHg 85%
    08:00 +9°C° 0 mm 7 mps 740 mmHg 83%
    09:00 +10°C° 0 mm 7 mps 740 mmHg 81%
    10:00 +10°C° 0.1 mm 7 mps 740 mmHg 79%
    11:00 +11°C° 0.1 mm 8 mps 740 mmHg 77%
    12:00 +11°C° 0.1 mm 8 mps 741 mmHg 74%
    13:00 +11°C° 0 mm 8 mps 741 mmHg 75%
    14:00 +11°C° 0 mm 8 mps 741 mmHg 76%
    15:00 +11°C° 0 mm 8 mps 741 mmHg 76%
    16:00 +9°C° 0 mm 7 mps 742 mmHg 81%
    17:00 +8°C° 0 mm 5 mps 742 mmHg 86%
    18:00 +7°C° 0 mm 4 mps 742 mmHg 90%
    19:00 +7°C° 0 mm 4 mps 743 mmHg 91%
    20:00 +8°C° 0 mm 3 mps 743 mmHg 91%
    21:00 +7°C° 0 mm 3 mps 743 mmHg 91%
    22:00 +7°C° 0 mm 2 mps 743 mmHg 91%
    23:00 +7°C° 0 mm 2 mps 744 mmHg 91%

    20 October, Sunday

    Time Temperature Precipitation Wind Pressure Humidity
    00:00 +7°C° 0 mm 2 mps 744 mmHg 91%
    01:00 +8°C° 0 mm 1 mps 744 mmHg 91%
    02:00 +8°C° 0 mm 1 mps 744 mmHg 91%
    03:00 +8°C° 0 mm 1 mps 744 mmHg 91%
    04:00 +8°C° 0 mm 1 mps 744 mmHg 90%
    05:00 +8°C° 0 mm 1 mps 744 mmHg 90%
    06:00 +8°C° 0 mm 1 mps 745 mmHg 89%
    07:00 +9°C° 0 mm 1 mps 745 mmHg 87%
    08:00 +9°C° 0 mm 2 mps 746 mmHg 85%
    09:00 +9°C° 0 mm 2 mps 746 mmHg 83%
    10:00 +10°C° 0 mm 2 mps 747 mmHg 79%
    11:00 +12°C° 0 mm 2 mps 747 mmHg 75%
    12:00 +13°C° 0 mm 2 mps 747 mmHg 71%
    13:00 +13°C° 0 mm 2 mps 748 mmHg 71%
    14:00 +13°C° 0 mm 2 mps 748 mmHg 72%
    15:00 +13°C° 0 mm 2 mps 748 mmHg 73%
    16:00 +12°C° 0 mm 2 mps 749 mmHg 78%
    17:00 +10°C° 0 mm 3 mps 749 mmHg 84%
    18:00 +8°C° 0 mm 3 mps 750 mmHg 90%
    19:00 +8°C° 0 mm 3 mps 750 mmHg 90%
    20:00 +8°C° 0 mm 3 mps 751 mmHg 90%
    21:00 +7°C° 0 mm 3 mps 752 mmHg 90%
    22:00 +7°C° 0 mm 3 mps 752 mmHg 90%
    23:00 +7°C° 0 mm 3 mps 752 mmHg 91%

    21 October, Monday

    Time Temperature Precipitation Wind Pressure Humidity
    00:00 +7°C° 0 mm 3 mps 753 mmHg 91%
    01:00 +7°C° 0 mm 3 mps 753 mmHg 91%
    02:00 +7°C° 0 mm 3 mps 753 mmHg 91%
    03:00 +7°C° 0 mm 3 mps 753 mmHg 90%
    04:00 +5°C° 0 mm 3 mps 754 mmHg 90%
    05:00 +5°C° 0 mm 3 mps 754 mmHg 90%
    06:00 +5°C° 0 mm 3 mps 755 mmHg 90%
    07:00 +8°C° 0 mm 3 mps 755 mmHg 87%
    08:00 +9°C° 0 mm 3 mps 756 mmHg 85%
    09:00 +10°C° 0 mm 3 mps 756 mmHg 83%
    10:00 +11°C° 0 mm 4 mps 757 mmHg 81%
    11:00 +12°C° 0 mm 4 mps 757 mmHg 78%
    12:00 +13°C° 0 mm 4 mps 758 mmHg 75%
    13:00 +12°C° 0 mm 4 mps 758 mmHg 75%
    14:00 +12°C° 0 mm 4 mps 758 mmHg 75%
    15:00 +12°C° 0 mm 4 mps 758 mmHg 75%
    16:00 +11°C° 0 mm 3 mps 758 mmHg 80%
    17:00 +10°C° 0 mm 3 mps 759 mmHg 84%
    18:00 +8°C° 0 mm 2 mps 759 mmHg 89%
    19:00 +8°C° 0 mm 2 mps 759 mmHg 89%
    20:00 +8°C° 0 mm 2 mps 760 mmHg 89%
    21:00 +8°C° 0 mm 2 mps 760 mmHg 89%
    22:00 +7°C° 0 mm 2 mps 760 mmHg 90%
    23:00 +7°C° 0 mm 2 mps 760 mmHg 90%
    Show more